| time (UTC) | temp F | wind direction | speed knots | gust knots | rain 1hr in | rain 24hr in | rain mn in | humidity % | barometer mb |
| 20260507170016 | 57 | 285 | 0.9 | 6.1 | 0.00 | 0.00 | 0.00 | 39 | |
| 20260507165016 | 57 | 289 | 0.9 | 5.2 | 0.00 | 0.00 | 0.00 | 39 | |
| 20260507164038 | 57 | 292 | 0.9 | 4.3 | 0.00 | 0.00 | 0.00 | 42 | |
| 20260507163017 | 56 | 292 | 0.9 | 1.7 | 0.00 | 0.00 | 0.00 | 42 | |
| 20260507162015 | 56 | 296 | 0.9 | 5.2 | 0.00 | 0.00 | 0.00 | 42 | |
| 20260507161018 | 56 | 267 | 0.9 | 2.6 | 0.00 | 0.00 | 0.00 | 43 | |
| 20260507160017 | 55 | 269 | 0.0 | 1.7 | 0.00 | 0.00 | 0.00 | 42 | |
| 20260507155036 | 55 | 277 | 0.9 | 3.5 | 0.00 | 0.00 | 0.00 | 42 | |
| 20260507154018 | 55 | 263 | 0.9 | 2.6 | 0.00 | 0.00 | 0.00 | 43 | |
| 20260507153017 | 55 | 267 | 0.9 | 3.5 | 0.00 | 0.00 | 0.00 | 43 | |
| 20260507152015 | 54 | 264 | 0.9 | 3.5 | 0.00 | 0.00 | 0.00 | 42 | |
| 20260507151017 | 54 | 263 | 0.0 | 2.6 | 0.00 | 0.00 | 0.00 | 43 | |
| 20260507150018 | 54 | 298 | 0.9 | 4.3 | 0.00 | 0.00 | 0.00 | 44 | |
| 20260507145016 | 54 | 278 | 0.0 | 0.9 | 0.00 | 0.00 | 0.00 | 42 | |
| 20260507144021 | 53 | 258 | 0.9 | 3.5 | 0.00 | 0.00 | 0.00 | 41 | |
| 20260507143017 | 53 | 258 | 0.9 | 2.6 | 0.00 | 0.00 | 0.00 | 45 | |
| 20260507142017 | 53 | 330 | 0.9 | 3.5 | 0.00 | 0.00 | 0.00 | 48 | |
| 20260507141037 | 52 | 303 | 0.9 | 3.5 | 0.00 | 0.00 | 0.00 | 48 | |
| 20260507140015 | 52 | 262 | 0.0 | 0.9 | 0.00 | 0.00 | 0.00 | 50 | |
| 20260507135015 | 52 | 269 | 0.0 | 1.7 | 0.00 | 0.00 | 0.00 | 50 | |
| 20260507134016 | 51 | 280 | 0.9 | 2.6 | 0.00 | 0.00 | 0.00 | 55 | |
| 20260507133016 | 51 | 315 | 0.0 | 1.7 | 0.00 | 0.00 | 0.00 | 58 | |
| 20260507132039 | 50 | 319 | 0.9 | 2.6 | 0.00 | 0.00 | 0.00 | 60 | |
| 20260507131017 | 49 | 324 | 0.9 | 2.6 | 0.00 | 0.00 | 0.00 | 64 | |
| 20260507130015 | 48 | 331 | 0.9 | 2.6 | 0.00 | 0.00 | 0.00 | 64 | |
| 20260507125015 | 47 | 316 | 0.0 | 0.9 | 0.00 | 0.00 | 0.00 | 72 | |
| 20260507124016 | 46 | 286 | 0.0 | 0.9 | 0.00 | 0.00 | 0.00 | 73 | |
| 20260507123016 | 45 | 285 | 0.0 | 0.9 | 0.00 | 0.00 | 0.00 | 74 | |
| 20260507122016 | 44 | 283 | 0.0 | 0.9 | 0.00 | 0.00 | 0.00 | 76 | |
| 20260507121017 | 43 | 0.0 | 0.0 | 0.00 | 0.00 | 0.00 | 77 | ||
| 20260507120017 | 42 | 0.0 | 0.0 | 0.00 | 0.00 | 0.00 | 80 | ||
| 20260507115017 | 41 | 0.0 | 0.0 | 0.00 | 0.00 | 0.00 | 83 | ||
| 20260507114015 | 41 | 0.0 | 0.0 | 0.00 | 0.00 | 0.00 | 84 | ||
| 20260507113016 | 41 | 0.0 | 0.0 | 0.00 | 0.00 | 0.00 | 85 | ||
| 20260507112018 | 40 | 0.0 | 0.0 | 0.00 | 0.00 | 0.00 | 86 | ||
| 20260507111016 | 40 | 0.0 | 0.0 | 0.00 | 0.00 | 0.00 | 86 | ||
| 20260507110038 | 40 | 0.0 | 0.0 | 0.00 | 0.00 | 0.00 | 86 | ||
| 20260507105017 | 40 | 0.0 | 0.0 | 0.00 | 0.00 | 0.00 | 86 | ||
| 20260507104017 | 41 | 0.0 | 0.0 | 0.00 | 0.00 | 0.00 | 85 | ||
| 20260507103017 | 41 | 0.0 | 0.0 | 0.00 | 0.00 | 0.00 | 86 | ||
| 20260507102015 | 41 | 0.0 | 0.0 | 0.00 | 0.00 | 0.00 | 86 | ||
| 20260507101017 | 41 | 0.0 | 0.0 | 0.00 | 0.00 | 0.00 | 86 | ||
| 20260507100036 | 41 | 0.0 | 0.0 | 0.00 | 0.00 | 0.00 | 86 | ||
| 20260507095018 | 42 | 0.0 | 0.0 | 0.00 | 0.00 | 0.00 | 86 | ||
| 20260507094020 | 42 | 0.0 | 0.0 | 0.00 | 0.00 | 0.00 | 85 | ||
| 20260507093015 | 42 | 0.0 | 0.0 | 0.00 | 0.00 | 0.00 | 85 | ||
| 20260507092018 | 42 | 0.0 | 0.0 | 0.00 | 0.00 | 0.00 | 85 | ||
| 20260507091016 | 43 | 0.0 | 0.0 | 0.00 | 0.00 | 0.00 | 85 | ||
| 20260507090016 | 43 | 0.0 | 0.0 | 0.00 | 0.00 | 0.00 | 85 | ||
| 20260507085036 | 43 | 0.0 | 0.0 | 0.00 | 0.00 | 0.00 | 85 | ||
| 20260507084016 | 43 | 0.0 | 0.0 | 0.00 | 0.00 | 0.00 | 86 | ||
| 20260507083017 | 43 | 0.0 | 0.0 | 0.00 | 0.00 | 0.00 | 87 | ||
| 20260507082015 | 43 | 0.0 | 0.0 | 0.00 | 0.00 | 0.00 | 89 | ||
| 20260507081015 | 42 | 0.0 | 0.0 | 0.00 | 0.00 | 0.00 | 89 | ||
| 20260507080016 | 41 | 0.0 | 0.0 | 0.00 | 0.00 | 0.00 | 88 | ||
| 20260507075016 | 42 | 0.0 | 0.0 | 0.00 | 0.01 | 0.00 | 87 | ||
| 20260507074019 | 42 | 0.0 | 0.0 | 0.00 | 0.01 | 0.00 | 86 | ||
| 20260507073017 | 43 | 0.0 | 0.0 | 0.00 | 0.01 | 0.00 | 86 | ||
| 20260507072017 | 44 | 0.0 | 0.0 | 0.00 | 0.02 | 0.00 | 86 | ||
| 20260507071015 | 44 | 0.0 | 0.0 | 0.00 | 0.04 | 0.00 | 86 | ||
| 20260507070057 | 44 | 0.0 | 0.0 | 0.00 | 0.06 | 0.00 | 85 | ||
| 20260507065017 | 45 | 0.0 | 0.0 | 0.00 | 0.07 | 0.00 | 84 | ||
| 20260507064016 | 45 | 0.0 | 0.0 | 0.00 | 0.09 | 0.00 | 84 | ||
| 20260507063016 | 45 | 0.0 | 0.0 | 0.00 | 0.10 | 0.00 | 84 | ||
| 20260507062037 | 46 | 0.0 | 0.0 | 0.00 | 0.12 | 0.00 | 83 | ||
| 20260507061018 | 46 | 0.0 | 0.0 | 0.00 | 0.13 | 0.00 | 83 | ||
| 20260507060015 | 46 | 0.0 | 0.0 | 0.00 | 0.13 | 0.00 | 83 | ||
| 20260507055037 | 46 | 0.0 | 0.0 | 0.00 | 0.15 | 0.00 | 82 | ||
| 20260507054016 | 46 | 0.0 | 0.0 | 0.00 | 0.16 | 0.00 | 81 | ||
| 20260507053016 | 47 | 0.0 | 0.0 | 0.00 | 0.18 | 0.00 | 80 | ||
| 20260507052016 | 47 | 0.0 | 0.0 | 0.00 | 0.21 | 0.00 | 79 | ||
| 20260507051037 | 47 | 0.0 | 0.0 | 0.00 | 0.22 | 0.00 | 79 | ||
| 20260507050017 | 47 | 0.0 | 0.0 | 0.00 | 0.24 | 0.00 | 79 | ||
| 20260507045015 | 47 | 0.0 | 0.0 | 0.00 | 0.29 | 0.00 | 81 | ||
| 20260507044015 | 46 | 0.0 | 0.0 | 0.00 | 0.30 | 0.00 | 80 | ||
| 20260507043035 | 46 | 0.0 | 0.0 | 0.00 | 0.32 | 0.00 | 79 | ||
| 20260507042036 | 47 | 0.0 | 0.0 | 0.00 | 0.33 | 0.00 | 79 | ||
| 20260507041016 | 47 | 0.0 | 0.0 | 0.00 | 0.34 | 0.00 | 80 | ||
| 20260507040016 | 47 | 0.0 | 0.0 | 0.00 | 0.36 | 0.00 | 78 | ||
| 20260507035019 | 48 | 0.0 | 0.0 | 0.00 | 0.36 | 0.36 | 78 | ||
| 20260507034015 | 48 | 0.0 | 0.0 | 0.00 | 0.36 | 0.36 | 77 | ||
| 20260507033015 | 48 | 0.0 | 0.0 | 0.00 | 0.38 | 0.36 | 77 | ||
| 20260507032036 | 48 | 0.0 | 0.0 | 0.00 | 0.39 | 0.36 | 77 | ||
| 20260507031016 | 48 | 0.0 | 0.0 | 0.00 | 0.39 | 0.36 | 78 | ||
| 20260507030016 | 48 | 0.0 | 0.0 | 0.00 | 0.39 | 0.36 | 78 | ||
| 20260507025019 | 48 | 0.0 | 0.0 | 0.00 | 0.39 | 0.36 | 77 | ||
| 20260507024017 | 48 | 0.0 | 0.0 | 0.00 | 0.39 | 0.36 | 75 | ||
| 20260507023015 | 49 | 0.0 | 0.0 | 0.00 | 0.40 | 0.36 | 74 | ||
| 20260507022015 | 49 | 0.0 | 0.0 | 0.00 | 0.40 | 0.36 | 74 | ||
| 20260507021015 | 49 | 0.0 | 0.0 | 0.00 | 0.40 | 0.36 | 73 | ||
| 20260507020018 | 49 | 0.0 | 0.0 | 0.00 | 0.40 | 0.36 | 71 | ||
| 20260507015016 | 50 | 0.0 | 0.0 | 0.00 | 0.41 | 0.36 | 71 | ||
| 20260507014017 | 50 | 0.0 | 0.0 | 0.00 | 0.41 | 0.36 | 70 | ||
| 20260507013037 | 51 | 0.0 | 0.0 | 0.00 | 0.42 | 0.36 | 69 | ||
| 20260507012016 | 51 | 0.0 | 0.0 | 0.00 | 0.42 | 0.36 | 67 | ||
| 20260507010016 | 53 | 0.0 | 0.0 | 0.00 | 0.45 | 0.36 | 66 | ||
| 20260507005018 | 54 | 0.0 | 0.0 | 0.00 | 0.49 | 0.36 | 64 | ||
| 20260507004016 | 54 | 0.0 | 0.0 | 0.00 | 0.54 | 0.36 | 63 | ||
| 20260507003038 | 55 | 0.0 | 0.0 | 0.00 | 0.54 | 0.36 | 62 | ||
| 20260507002015 | 55 | 320 | 0.0 | 0.9 | 0.00 | 0.54 | 0.36 | 61 | |
| 20260507001035 | 56 | 316 | 0.0 | 0.9 | 0.00 | 0.55 | 0.36 | 59 | |
| 20260507000015 | 56 | 307 | 0.0 | 1.7 | 0.00 | 0.55 | 0.36 | 59 | |
| 20260506235016 | 57 | 303 | 0.9 | 2.6 | 0.00 | 0.55 | 0.36 | 58 | |
| 20260506234016 | 57 | 321 | 0.0 | 1.7 | 0.00 | 0.55 | 0.36 | 57 | |
| 20260506233018 | 57 | 300 | 0.9 | 2.6 | 0.00 | 0.56 | 0.36 | 55 | |
| 20260506232017 | 58 | 330 | 0.9 | 6.1 | 0.00 | 0.56 | 0.36 | 53 | |
| 20260506231035 | 58 | 45 | 0.0 | 1.7 | 0.00 | 0.57 | 0.36 | 53 | |
| 20260506230036 | 59 | 321 | 0.9 | 5.2 | 0.00 | 0.58 | 0.36 | 53 | |
| 20260506225015 | 58 | 318 | 0.9 | 2.6 | 0.00 | 0.58 | 0.36 | 53 | |
| 20260506224058 | 58 | 307 | 0.0 | 2.6 | 0.00 | 0.58 | 0.36 | 53 | |
| 20260506223037 | 58 | 320 | 0.9 | 3.5 | 0.00 | 0.58 | 0.36 | 54 | |
| 20260506222016 | 58 | 4 | 0.0 | 0.9 | 0.00 | 0.58 | 0.36 | 55 | |
| 20260506221022 | 58 | 240 | 0.0 | 0.9 | 0.00 | 0.58 | 0.36 | 55 | |
| 20260506220035 | 58 | 318 | 0.9 | 3.5 | 0.00 | 0.58 | 0.36 | 54 | |
| 20260506215015 | 58 | 309 | 0.0 | 1.7 | 0.00 | 0.58 | 0.36 | 53 | |
| 20260506214018 | 58 | 334 | 0.0 | 1.7 | 0.00 | 0.58 | 0.36 | 53 | |
| 20260506213019 | 58 | 2 | 0.0 | 2.6 | 0.00 | 0.58 | 0.36 | 52 | |
| 20260506212016 | 58 | 297 | 0.0 | 1.7 | 0.00 | 0.58 | 0.36 | 52 | |
| 20260506211016 | 59 | 304 | 0.0 | 1.7 | 0.00 | 0.59 | 0.36 | 52 | |
| 20260506210017 | 59 | 51 | 0.0 | 1.7 | 0.00 | 0.59 | 0.36 | 52 | |
| 20260506205014 | 59 | 267 | 0.0 | 0.9 | 0.00 | 0.60 | 0.36 | 51 | |
| 20260506204015 | 58 | 270 | 0.0 | 0.9 | 0.00 | 0.61 | 0.36 | 51 | |
| 20260506203018 | 59 | 274 | 0.9 | 1.7 | 0.00 | 0.62 | 0.36 | 51 | |
| 20260506202017 | 58 | 321 | 0.0 | 1.7 | 0.00 | 0.64 | 0.36 | 53 | |
| 20260506201016 | 58 | 266 | 0.0 | 0.9 | 0.00 | 0.65 | 0.36 | 52 | |
| 20260506200037 | 58 | 323 | 0.9 | 3.5 | 0.00 | 0.67 | 0.36 | 53 | |
| 20260506195017 | 58 | 291 | 0.9 | 2.6 | 0.00 | 0.68 | 0.36 | 54 | |
| 20260506194015 | 58 | 266 | 0.0 | 1.7 | 0.00 | 0.69 | 0.36 | 54 | |
| 20260506193015 | 58 | 264 | 0.9 | 4.3 | 0.00 | 0.71 | 0.36 | 54 | |
| 20260506192016 | 59 | 316 | 0.9 | 5.2 | 0.00 | 0.73 | 0.36 | 54 | |
| 20260506191016 | 60 | 307 | 1.7 | 7.8 | 0.00 | 0.77 | 0.36 | 52 | |
| 20260506190018 | 60 | 295 | 0.0 | 2.6 | 0.00 | 0.80 | 0.36 | 53 | |
| 20260506185018 | 60 | 48 | 0.9 | 2.6 | 0.00 | 0.80 | 0.36 | 52 | |
| 20260506184017 | 61 | 260 | 0.0 | 1.7 | 0.00 | 0.80 | 0.36 | 49 | |
| 20260506183015 | 60 | 338 | 0.0 | 1.7 | 0.00 | 0.80 | 0.36 | 49 | |
| 20260506182015 | 60 | 305 | 0.0 | 3.5 | 0.00 | 0.80 | 0.36 | 53 | |
| 20260506181015 | 60 | 307 | 0.9 | 3.5 | 0.00 | 0.80 | 0.36 | 52 | |
| 20260506180017 | 60 | 2 | 0.9 | 4.3 | 0.00 | 0.80 | 0.36 | 54 | |
| 20260506175019 | 60 | 273 | 0.9 | 4.3 | 0.00 | 0.80 | 0.36 | 54 | |
| 20260506174018 | 60 | 304 | 0.0 | 2.6 | 0.00 | 0.80 | 0.36 | 53 | |
| 20260506173017 | 60 | 305 | 0.9 | 6.1 | 0.00 | 0.80 | 0.36 | 51 | |
| 20260506172037 | 59 | 338 | 0.9 | 3.5 | 0.00 | 0.80 | 0.36 | 54 | |
| 20260506171035 | 58 | 305 | 0.9 | 2.6 | 0.00 | 0.80 | 0.36 | 56 |